Terug naar catalogus

QIANFAN-145

ActiefCommunicatiePO
NORAD 69104·PAYLOAD·🇨🇳 China

Gelanceerd May 17, 2026 vanaf Wenchang Space Launch Site

Loading…

Volgende Passages (komende 24 uur)

TLE

VersSource: Space-Track

Epoch: Sep 14, 2026, 14:28 UTC

1 69104U 26108A   26257.60330106  .00000097  00000-0  13133-3 0  9998
2 69104  89.0189  13.1188 0001614  99.8012 260.3321 13.51033406 16516

Volg QIANFAN-145 in realtime met AllMySat

Download on the App Store